| time (UTC) | temp F | wind direction | speed MPH | gust MPH | rain 1hr in | rain 24hr in | rain mn in | humidity % | barometer mb |
| 20260503003503 | 60 | 220 | 9.0 | 0.0 | 0.00 | 0.00 | 0.00 | 41 | 1015.0 |
| 20260503000503 | 59 | 230 | 8.0 | 0.0 | 0.00 | 0.00 | 0.00 | 44 | 1015.0 |
| 20260502233503 | 60 | 230 | 5.0 | 0.0 | 0.00 | 0.00 | 0.00 | 44 | 1015.0 |
| 20260502230504 | 53 | 240 | 5.0 | 0.0 | 0.00 | 0.00 | 0.00 | 54 | 1016.0 |
| 20260502223504 | 51 | 280 | 3.0 | 0.0 | 0.00 | 0.00 | 0.00 | 53 | 1016.0 |
| 20260502220504 | 51 | 280 | 5.0 | 0.0 | 0.00 | 0.00 | 0.00 | 53 | 1016.0 |
| 20260502213503 | 51 | 270 | 2.0 | 0.0 | 0.00 | 0.00 | 0.00 | 53 | 1016.0 |
| 20260502210504 | 51 | 1 | 0.0 | 0.0 | 0.00 | 0.00 | 0.00 | 50 | 1016.0 |
| 20260502203503 | 53 | 1 | 0.0 | 0.0 | 0.00 | 0.00 | 0.00 | 46 | 1016.0 |
| 20260502200503 | 53 | 1 | 0.0 | 0.0 | 0.00 | 0.00 | 0.00 | 46 | 1016.0 |
| 20260502193503 | 55 | 1 | 0.0 | 0.0 | 0.00 | 0.00 | 0.00 | 40 | 1017.0 |
| 20260502190504 | 55 | 1 | 0.0 | 0.0 | 0.00 | 0.00 | 0.00 | 43 | 1017.0 |
| 20260502183503 | 57 | 2 | 0.0 | 0.0 | 0.00 | 0.00 | 0.00 | 38 | 1017.0 |
| 20260502180504 | 60 | 30 | 6.0 | 0.0 | 0.00 | 0.00 | 0.00 | 33 | 1017.0 |
| 20260502170504 | 62 | 50 | 8.0 | 0.0 | 0.00 | 0.00 | 0.00 | 33 | 1017.0 |
| 20260502163503 | 64 | 50 | 10.0 | 0.0 | 0.00 | 0.00 | 0.00 | 31 | 1017.0 |
| 20260502160504 | 64 | 60 | 13.0 | 0.0 | 0.00 | 0.00 | 0.00 | 31 | 1018.0 |
| 20260502150504 | 68 | 50 | 13.0 | 0.0 | 0.00 | 0.00 | 0.00 | 28 | 1018.0 |
| 20260502130504 | 77 | 260 | 12.0 | 0.0 | 0.00 | 0.00 | 0.00 | 19 | 1019.0 |
| 20260502123503 | 77 | 230 | 9.0 | 0.0 | 0.00 | 0.00 | 0.00 | 19 | 1020.0 |
| 20260502120504 | 77 | 260 | 7.0 | 0.0 | 0.00 | 0.00 | 0.00 | 19 | 1020.0 |
| 20260502113503 | 75 | 5 | 0.0 | 0.0 | 0.00 | 0.00 | 0.00 | 20 | 1021.0 |
| 20260502110504 | 75 | 260 | 7.0 | 0.0 | 0.00 | 0.00 | 0.00 | 22 | 1021.0 |
| 20260502103504 | 75 | 2 | 0.0 | 0.0 | 0.00 | 0.00 | 0.00 | 22 | 1022.0 |
| 20260502100503 | 73 | 3 | 0.0 | 0.0 | 0.00 | 0.00 | 0.00 | 25 | 1022.0 |
| 20260502090504 | 69 | 240 | 6.0 | 0.0 | 0.00 | 0.00 | 0.00 | 26 | 1023.0 |
| 20260502070504 | 64 | 250 | 7.0 | 0.0 | 0.00 | 0.00 | 0.00 | 36 | 1023.0 |
| 20260502063503 | 60 | 290 | 7.0 | 0.0 | 0.00 | 0.00 | 0.00 | 41 | 1023.0 |
| 20260502060504 | 57 | 270 | 7.0 | 0.0 | 0.00 | 0.00 | 0.00 | 47 | 1023.0 |
| 20260502053504 | 53 | 260 | 6.0 | 0.0 | 0.00 | 0.00 | 0.00 | 54 | 1023.0 |
| 20260502050504 | 50 | 260 | 6.0 | 0.0 | 0.00 | 0.00 | 0.00 | 57 | 1023.0 |
| 20260502043504 | 48 | 250 | 6.0 | 0.0 | 0.00 | 0.00 | 0.00 | 57 | 1023.0 |
| 20260502040504 | 46 | 250 | 7.0 | 0.0 | 0.00 | 0.00 | 0.00 | 61 | 1023.0 |
| 20260502033503 | 44 | 250 | 5.0 | 0.0 | 0.00 | 0.00 | 0.00 | 60 | 1023.0 |
| 20260502030504 | 46 | 4 | 0.0 | 0.0 | 0.00 | 0.00 | 0.00 | 56 | 1023.0 |
| 20260502023503 | 46 | 260 | 3.0 | 0.0 | 0.00 | 0.00 | 0.00 | 56 | 1023.0 |
| 20260502020504 | 46 | 250 | 5.0 | 0.0 | 0.00 | 0.00 | 0.00 | 56 | 1023.0 |
| 20260502013503 | 48 | 240 | 6.0 | 0.0 | 0.00 | 0.00 | 0.00 | 53 | 1023.0 |
| 20260502010504 | 48 | 250 | 5.0 | 0.0 | 0.00 | 0.00 | 0.00 | 53 | 1023.0 |